Weather History for Rovaniemi, Finland

Change the Weather History Date:

Wednesday, March 6, 2013

  Actual Average Record
Temperature  
Mean Temperature 10 °F -  
Max Temperature 13 °F - - ()
Min Temperature 5 °F - - ()
Degree Days  
Heating Degree Days 56    
Moisture  
Dew Point 9 °F    
Average Humidity 86    
Maximum Humidity 93    
Minimum Humidity 74    
Precipitation  
Precipitation 0.00 in - - ()
Sea Level Pressure  
Sea Level Pressure 29.36 in    
Wind  
Wind Speed 10 mph ()    
Max Wind Speed 21 mph    
Max Gust Speed -    
Visibility 3.8 miles    
Events Snow    
T = Trace of Precipitation, MM = Missing Value Source: Averaged Metar Reports

Daily Weather History Graph

Daily Weather History Graph

Search for Another Location

Airport:

Trip Planner

Search our weather history database for the weather conditions in past years. The results will help you decide how hot, cold, wet, or windy it might be!

Date:

Astronomy

Mar. 06, 2013 Rise Set
Actual Time 7:11 AM EET 5:45 PM EET
Civil Twilight 6:19 AM EET 6:38 PM EET
Nautical Twilight 5:18 AM EET 7:39 PM EET
Astronomical Twilight 4:13 AM EET 8:44 PM EET
Moon 5:17 AM EET (3/6) 9:54 AM EET (3/6)
Length of Visible Light 12h 18m
Length of Day
10h 34m
Waning Crescent, 33% of the Moon is Illuminated
Mar 6
Waning Crescent
Mar 11
New
Mar 19
First Quarter
Mar 27
Full
Apr 3
Last Quarter

Hourly Weather History & Observations

Time (EET) Temp. Windchill Dew Point Humidity Pressure Visibility Wind Dir Wind Speed Gust Speed Precip Events Conditions
12:20 AM 15.8 °F 6.1 °F 14.0 °F 93% 29.42 in 1.7 mi NE 6.9 mph - N/A Snow Light Snow
12:50 AM 15.8 °F 6.1 °F 14.0 °F 93% 29.42 in 1.1 mi NE 6.9 mph - N/A Snow Light Snow
1:20 AM 15.8 °F 6.1 °F 14.0 °F 93% 29.42 in 1.1 mi NNE 6.9 mph - N/A Snow Light Snow
1:39 AM 16 °F - 14 °F 89% 29.47 in 1 mi NNE 4.5 mph - - Snow Light Snow
1:50 AM 15.8 °F 5.1 °F 14.0 °F 93% 29.39 in 1.6 mi NNE 8.1 mph - N/A Snow Light Snow
2:20 AM 15.8 °F 3.4 °F 14.0 °F 93% 29.39 in - NNE 10.4 mph - N/A Snow Light Snow
2:50 AM 15.8 °F 2.7 °F 14.0 °F 93% 29.39 in 3.7 mi NNE 11.5 mph - N/A Snow Light Snow
3:20 AM 15.8 °F 3.4 °F 14.0 °F 93% 29.36 in - NNE 10.4 mph - N/A Snow Light Snow
3:50 AM 14.0 °F 0.5 °F 12.2 °F 93% 29.36 in 5.6 mi NNE 11.5 mph - N/A Snow Light Snow Grains
4:20 AM 14.0 °F -1.4 °F 12.2 °F 93% 29.36 in - NNE 15.0 mph - N/A   Clear
4:50 AM 12.2 °F -3.7 °F 10.4 °F 92% 29.36 in - NNE 15.0 mph - N/A   Clear
5:20 AM 12.2 °F -3.7 °F 10.4 °F 92% 29.33 in - NNE 15.0 mph - N/A   Clear
5:50 AM 12.2 °F -2.5 °F 10.4 °F 92% 29.33 in - NNE 12.7 mph - N/A   Clear
6:20 AM 12.2 °F -2.5 °F 10.4 °F 92% 29.33 in - NE 12.7 mph - N/A   Clear
6:50 AM 12.2 °F -3.1 °F 10.4 °F 92% 29.33 in - NE 13.8 mph - N/A   Clear
7:20 AM 12.2 °F -2.5 °F 10.4 °F 92% 29.30 in 3.1 mi NE 12.7 mph - N/A Snow Light Snow
7:39 AM 13 °F - 11 °F 86% 29.37 in 2 mi NE 13.4 mph - - Snow Light Snow
7:50 AM 12.2 °F -3.7 °F 10.4 °F 92% 29.30 in 1.2 mi NE 15.0 mph - N/A Snow Light Snow
8:20 AM 12.2 °F -1.8 °F 10.4 °F 92% 29.30 in 1.2 mi NNE 11.5 mph - N/A Snow Light Snow
8:50 AM 12.2 °F -2.5 °F 10.4 °F 92% 29.30 in 0.9 mi NNE 12.7 mph - N/A Snow Light Snow
9:20 AM 10.4 °F -6.6 °F 8.6 °F 92% 29.30 in 1.1 mi NNE 16.1 mph - N/A Snow Light Snow
9:50 AM 10.4 °F -8.6 °F 8.6 °F 92% 29.27 in 1.1 mi NNE 20.7 mph - N/A Snow Light Snow
10:20 AM 12.2 °F -5.8 °F 8.6 °F 85% 29.27 in 1.6 mi NNE 19.6 mph - N/A Snow Light Snow
10:50 AM 10.4 °F -8.2 °F 8.6 °F 92% 29.27 in 6.2 mi NNE 19.6 mph - N/A Snow Light Snow
11:20 AM 12.2 °F -6.3 °F 8.6 °F 85% 29.30 in 6.2 mi NNE 20.7 mph - N/A   Mostly Cloudy
11:50 AM 12.2 °F -4.3 °F 8.6 °F 85% 29.30 in 6.2 mi NNE 16.1 mph - N/A   Mostly Cloudy
12:20 PM 12.2 °F -5.3 °F 8.6 °F 85% 29.30 in 6.2 mi North 18.4 mph - N/A Snow Light Snow
12:50 PM 12.2 °F -4.3 °F 8.6 °F 85% 29.30 in 6.2 mi North 16.1 mph - N/A   Mostly Cloudy
1:20 PM 12.2 °F -4.8 °F 6.8 °F 79% 29.30 in 6.2 mi North 17.3 mph - N/A   Mostly Cloudy
1:39 PM 12 °F - 9 °F 81% 29.39 in 3 mi North 15.7 mph - - Snow Light Snow Showers
1:50 PM 12.2 °F -5.3 °F 8.6 °F 85% 29.33 in 6.2 mi North 18.4 mph - N/A   Mostly Cloudy
2:20 PM 14.0 °F -2.5 °F 8.6 °F 79% 29.33 in 6.2 mi NNE 17.3 mph - N/A   Mostly Cloudy
2:50 PM 14.0 °F -3.4 °F 8.6 °F 79% 29.33 in 6.2 mi North 19.6 mph - N/A   Mostly Cloudy
3:20 PM 14.0 °F -2.5 °F 8.6 °F 79% 29.36 in - North 17.3 mph - N/A   Clear
3:50 PM 12.2 °F -1.8 °F 8.6 °F 85% 29.36 in - NNW 11.5 mph - N/A   Clear
4:20 PM 12.2 °F -2.5 °F 6.8 °F 79% 29.39 in - NNW 12.7 mph - N/A   Clear
4:50 PM 12.2 °F -1.8 °F 6.8 °F 79% 29.39 in - NNW 11.5 mph - N/A   Clear
5:20 PM 10.4 °F -2.4 °F 6.8 °F 85% 29.39 in - NNW 9.2 mph - N/A   Clear
5:50 PM 10.4 °F -3.3 °F 6.8 °F 85% 29.39 in - NNW 10.4 mph - N/A   Clear
6:20 PM 10.4 °F -2.4 °F 6.8 °F 85% 29.39 in - NNW 9.2 mph - N/A   Clear
6:50 PM 10.4 °F -3.3 °F 6.8 °F 85% 29.42 in - NW 10.4 mph - N/A   Clear
7:20 PM 10.4 °F -4.1 °F 5.0 °F 79% 29.42 in - NNW 11.5 mph - N/A   Clear
7:39 PM 11 °F - 6 °F 74% 29.48 in 31 mi NW 11.2 mph - - Snow Light Snow Showers
7:50 PM 10.4 °F -4.1 °F 5.0 °F 79% 29.42 in - NNW 11.5 mph - N/A   Clear
8:20 PM 10.4 °F -1.5 °F 5.0 °F 79% 29.42 in - NNW 8.1 mph - N/A   Clear
8:50 PM 8.6 °F -2.6 °F 3.2 °F 79% 29.42 in - NNW 6.9 mph - N/A   Clear
9:20 PM 8.6 °F 0.1 °F 3.2 °F 79% 29.42 in - NW 4.6 mph - N/A   Clear
9:50 PM 6.8 °F -0.1 °F 3.2 °F 85% 29.39 in - Variable 3.5 mph - N/A   Clear
10:20 PM 6.8 °F -0.1 °F 3.2 °F 85% 29.39 in 6.2 mi Variable 3.5 mph - N/A   Scattered Clouds
10:50 PM 6.8 °F - 1.4 °F 79% 29.39 in 6.2 mi Variable 2.3 mph - N/A   Mostly Cloudy
11:20 PM 6.8 °F -2.0 °F 1.4 °F 79% 29.39 in 6.2 mi WSW 4.6 mph - N/A   Partly Cloudy
11:50 PM 5.0 °F -2.1 °F 1.4 °F 85% 29.39 in - Variable 3.5 mph - N/A   Clear